Preview of NWS' New Version of Forecast
This preview is not operational and should not be used for support decisions.

Regional Weather Roundup (RWR)

Issued by National Weather Service (NWS)

                            
000
ASUS45 KBOU 220810
RWRCO 

WEATHER ROUNDUP FOR COLORADO
NATIONAL WEATHER SERVICE DENVER/BOULDER CO
100 AM MST FRI FEB 22 2019

NOTE: "FAIR" INDICATES FEW OR NO CLOUDS BELOW 12000 FEET WITH NO
SIGNIFICANT WEATHER AND/OR OBSTRUCTIONS TO VISIBILITY.

COZ001>005-013-030-031-220900-
...NORTHWEST COLORADO...
  
CITY           SKY/WX    TMP DP  RH WIND       PRES   REMARKS
CRAIG          CLOUDY    17  11  77 SW3       29.64F                  
HAYDEN         FAIR      14   9  80 S6        29.63F WCI   5          
MEEKER         CLOUDY    22  17  81 CALM      29.61R                  
RANGELY        LGT SNOW  23  18  83 E18       29.66S WCI   8          
RABBIT EARS PA LGT SNOW  10   5  79 S9        29.55F WCI  -2          
STEAMBOAT SPGS FAIR      17   8  66 NW3       29.61F                  
WALDEN         FAIR       0  -6  78 SE6       29.66S WCI -12          
$$

COZ006>008-011-220900-
...WEST CENTRAL VALLEYS...
  
CITY           SKY/WX    TMP DP  RH WIND       PRES   REMARKS
GRAND JUNCTION CLOUDY    31  28  89 E6        29.64S WCI  25          
MONTROSE       CLOUDY    29  21  72 S6        29.66R WCI  23          
EAGLE          CLOUDY    20  12  71 SE3       29.65F                  
RIFLE          CLOUDY    32  21  64 W6        29.63R WCI  26          
DELTA          LGT SNOW  36  26  68 CALM      29.66R                  
NUCLA          FLURRIES  30  27  86 CALM      29.69R                  
$$

COZ017>023-064>068-220900-
...SOUTHWEST COLORADO...
  
CITY           SKY/WX    TMP DP  RH WIND       PRES   REMARKS
DURANGO        CLOUDY    27  22  81 CALM      29.67S                  
CORTEZ         LGT SNOW  28  26  92 CALM      29.67S FOG              
PAGOSA SPRINGS CLOUDY    26  24  91 CALM      29.70R                  
TELLURIDE      CLOUDY    25  18  74 CALM      29.61R                  
WOLF CREEK PAS CLOUDY    10  10 100 S35G48    29.63F WCI -13          
$$

COZ009-010-012-014-032>034-037-058>063-220900-
...CENTRAL COLORADO...
  
CITY           SKY/WX    TMP DP  RH WIND       PRES   REMARKS
ASPEN          CLOUDY    29  11  47 SE17G32   29.59S WCI  17          
BUENA VISTA    LGT SNOW  22  20  92 SE6       29.72S WCI  14          
COPPER MTN     LGT SNOW  14   3  62 E37       29.56F VSB 3/4 WCI  -9  
BERTHOUD PASS  CLOUDY     3  -8  60 SE36      29.62S WCI -23          
COTTONWOOD PAS LGT SNOW  19  18  93 SE17      29.67S VSB 1   WCI   4  
GUNNISON       FAIR      24  14  65 N7        29.66S WCI  16          
GRANBY         FAIR      11   2  65 CALM      29.67S                  
KREMMLING      CLOUDY    12   5  73 NE6       29.67F WCI   3          
LEADVILLE      CLOUDY    13  12  96 S13       29.63F FOG     WCI  -2  
MONARCH PASS   CLOUDY    10   7  85 MISG      29.73F                  
SALIDA         CLOUDY    25  23  91 E3        29.80F                  
SUNLIGHT       LGT SNOW  12   9  85 S6        29.62R WCI   3          
WILKERSON PASS LGT SNOW  12   9  85 S14G22    29.71S WCI  -3          
$$

COZ069>075-220900-
...SAN LUIS VALLEY/SANGRE DE CRISTO MOUNTAINS...
  
CITY           SKY/WX    TMP DP  RH WIND       PRES   REMARKS
ALAMOSA        MOCLDY    17  11  77 NE3       29.72R                  
DEL NORTE      CLOUDY    20  12  71 NE6       29.70S WCI  12          
LA VETA PASS   NOT AVBL                                               
SAGUACHE       FAIR      21  12  68 CALM      29.72S                  
$$

COZ035-036-038>040-220900-
...NORTHERN COLORADO FRONT RANGE...
  
CITY           SKY/WX    TMP DP  RH WIND       PRES   REMARKS
DENVER INTL AP FOG       22  21  96 E10       29.88R VSB 1/4 WCI  11  
AURORA         CLOUDY    21  21 100 SW5       29.87S FOG     WCI  14  
FRONT RANGE AP NOT AVBL                                               
ERIE MUNI ARPT CLOUDY    24  22  91 CALM      29.96F FOG              
BOULDER MUN AP LGT SNOW  23  21  93 CALM      29.90R                  
CENTENNIAL     CLOUDY    18  17  96 W6        29.86S FOG     WCI  10  
BROOMFIELD     CLOUDY    23  21  93 CALM      29.88F                  
FORT COLLINS   LGT SNOW  21  19  92 E10       29.92R FOG     WCI  10  
LONGMONT       FLURRIES  25  19  80 CALM      29.93S                  
$$

COZ041-046-047-076>085-087-088-220900-
...PIKES PEAK/PALMER DIVIDE AND SOUTHERN FOOTHILLS...
  
CITY           SKY/WX    TMP DP  RH WIND       PRES   REMARKS
COLO. SPRINGS  CLOUDY    25  16  68 N9        29.82F WCI  15          
A. F. ACADEMY  CLOUDY    20  12  70 N7        29.81F WCI  11          
SCHRIEVER AFB  NOT AVBL                                               
CHEYENNE MTN   MOCLDY    21  12  70 NW9       29.74F WCI  10          
ELLICOTT       CLOUDY   N/A N/A N/A N12       29.80F                  
FALCON         CLOUDY    22  15  74 N8        29.81F WCI  13          
FORT CARSON    MOCLDY    25  13  60 N13       29.81F WCI  14          
LIMON          FOG       24  24 100 N7        29.85F VSB 1/2 WCI  16  
MONUMENT HILL  CLOUDY    18  12  79 CALM      29.83F                  
CANON CITY     NOT AVBL                                               
WALSENBURG     NOT AVBL                                               
TRINIDAD       CLOUDY    26  20  77 NW9       29.80S WCI  17          
$$

COZ042>045-048>051-090-091-220900-
...NORTHEAST COLORADO...
  
CITY           SKY/WX    TMP DP  RH WIND       PRES   REMARKS
GREELEY ARPT   FLURRIES  21  18  88 CALM      29.94S                  
AKRON          CLOUDY    19  18  95 E12       29.91S FOG     WCI   7  
BURLINGTON     CLOUDY    29  28  96 E13       29.90S FOG     WCI  19  
WRAY           CLOUDY    25  25 100 NE13      29.97F FOG     WCI  13  
YUMA           FOG       19  19 100 NE13      29.94F VSB 3/4 WCI   7  
STERLING       CLOUDY    21  21 100 E12       29.96S FOG     WCI   9  
HOLYOKE        CLOUDY    23  19  86 NE15      30.00F FOG     WCI  10  
FORT MORGAN      N/A     20  19  93 NE15      29.94S FOG     WCI   7  
$$

COZ086-089-092>099-220900-
...SOUTHEAST COLORADO...
  
CITY           SKY/WX    TMP DP  RH WIND       PRES   REMARKS
PUEBLO         FAIR      26  21  81 N8        29.83F WCI  18          
LA JUNTA       FAIR      24  21  88 W10       29.85R FOG     WCI  14  
LAMAR          FAIR      34  28  79 MISG      29.81S                  
SPRINGFIELD      N/A     29  26  89 S12       29.87R WCI  19          
$$